Fort Knox, KY

6:30 AM EST on December 11, 2019 (GMT -0500)
Godman Army Air Field

Weather History for KFTK - October, 2019

Change the Weather History Date:

Thursday, October 3, 2019

  Actual Average Record
Temperature  
Mean Temperature 78 °F -  
Max Temperature 95 °F 71 °F 95 °F (2019)
Min Temperature 64 °F 48 °F 33 °F (2003)
Cooling Degree Days 14    
Growing Degree Days 28 (Base 50)    
Moisture  
Dew Point 64 °F    
Average Humidity 65    
Maximum Humidity 90    
Minimum Humidity 37    
Precipitation  
Precipitation 0.00 in - - ()
Sea Level Pressure  
Sea Level Pressure 30.03 in    
Wind  
Wind Speed 4 mph (West)    
Max Wind Speed 15 mph    
Max Gust Speed 18 mph    
Visibility 10 miles    
Events      
Averages and records for this station are not official NWS values.
T = Trace of Precipitation, MM = Missing Value Source: NWS Daily Summary

Daily Weather History Graph

Daily Weather History Graph

Search for Another Location

Airport or City:

Astronomy

Oct. 03, 2019 Rise Set
Actual Time 7:41 AM EDT 7:24 PM EDT
Civil Twilight 7:14 AM EDT 7:50 PM EDT
Nautical Twilight 6:44 AM EDT 8:20 PM EDT
Astronomical Twilight 6:13 AM EDT 8:51 PM EDT
Moon 1:06 PM EDT (10/3) 11:08 PM EDT (10/3)
Length of Visible Light 12h 35m
Length of Day
11h 43m
Waxing Crescent, 29% of the Moon is Illuminated
Oct 3
Waxing Crescent
Oct 5
First Quarter
Oct 13
Full
Oct 21
Last Quarter
Oct 27
New

Hourly Weather History & Observations

Time (EDT) Temp. Heat Index Dew Point Humidity Pressure Visibility Wind Dir Wind Speed Gust Speed Precip Events Conditions
12:56 AM 68.5 °F - 61.3 °F 78% 29.97 in 10.0 mi Calm Calm - N/A   Clear
1:51 AM 68.0 °F - 62.6 °F 83% 29.99 in 10.0 mi Calm Calm - N/A   Clear
1:56 AM 67.8 °F - 62.1 °F 82% 29.99 in 10.0 mi Calm Calm - N/A   Clear
2:56 AM 68.2 °F - 61.3 °F 79% 29.99 in 10.0 mi Calm Calm - N/A   Clear
3:45 AM 66.2 °F - 62.6 °F 88% 29.97 in 10.0 mi Calm Calm - N/A   Clear
3:56 AM 67.6 °F - 61.5 °F 81% 29.97 in 10.0 mi Calm Calm - N/A   Clear
4:30 AM 66.2 °F - 60.8 °F 83% 29.99 in 10.0 mi Calm Calm - N/A   Clear
4:56 AM 66.6 °F - 60.4 °F 81% 29.99 in 10.0 mi SW 3.5 mph - N/A   Clear
5:56 AM 67.1 °F - 60.6 °F 80% 30.00 in 10.0 mi SW 3.5 mph - N/A   Clear
6:41 AM 68.0 °F - 60.8 °F 78% 30.02 in 10.0 mi Calm Calm - N/A   Clear
6:56 AM 67.3 °F - 60.8 °F 80% 30.02 in 10.0 mi South 3.5 mph - N/A   Clear
7:56 AM 64.2 °F - 61.2 °F 90% 30.03 in 10.0 mi SSW 3.5 mph - N/A   Clear
8:56 AM 73.4 °F - 63.0 °F 70% 30.04 in 10.0 mi SSW 4.6 mph - N/A   Clear
9:56 AM 80.1 °F 81.5 °F 63.0 °F 56% 30.04 in 10.0 mi WSW 6.9 mph - N/A   Clear
10:56 AM 84.7 °F 86.1 °F 64.0 °F 50% 30.04 in 10.0 mi West 5.8 mph - N/A   Clear
11:56 AM 89.1 °F 90.0 °F 63.5 °F 42% 30.04 in 10.0 mi West 10.4 mph 16.1 mph N/A   Clear
12:37 PM 89.6 °F 91.1 °F 64.4 °F 43% 30.04 in 10.0 mi WSW 15.0 mph 18.4 mph N/A   Clear
12:56 PM 89.2 °F 90.2 °F 63.7 °F 42% 30.04 in 10.0 mi West 11.5 mph - N/A   Clear
1:46 PM 91.4 °F 92.1 °F 62.6 °F 38% 30.02 in 10.0 mi West 9.2 mph - N/A   Clear
1:56 PM 92.7 °F 94.0 °F 63.3 °F 38% 30.02 in 10.0 mi West 5.8 mph - N/A   Clear
2:56 PM 93.4 °F 94.7 °F 63.9 °F 37% 30.01 in 10.0 mi West 10.4 mph 18.4 mph N/A   Scattered Clouds
3:56 PM 93.0 °F 95.5 °F 65.1 °F 40% 30.00 in 10.0 mi West 10.4 mph 18.4 mph N/A   Partly Cloudy
4:56 PM 90.9 °F 94.0 °F 67.1 °F 45% 30.00 in 10.0 mi WNW 9.2 mph 17.3 mph N/A   Partly Cloudy
5:48 PM 89.6 °F 93.4 °F 68.0 °F 49% 30.02 in 10.0 mi NW 10.4 mph - N/A   Mostly Cloudy
5:56 PM 89.1 °F 93.3 °F 68.5 °F 51% 30.02 in 10.0 mi NW 8.1 mph - N/A   Overcast
6:40 PM 84.2 °F 88.4 °F 69.8 °F 62% 30.04 in 10.0 mi WNW 11.5 mph - N/A   Scattered Clouds
6:56 PM 83.5 °F 86.9 °F 68.5 °F 61% 30.04 in 10.0 mi WNW 12.7 mph - N/A   Clear
7:56 PM 79.9 °F - 67.5 °F 66% 30.06 in 10.0 mi NW 6.9 mph - N/A   Clear
8:39 PM 78.8 °F - 68.0 °F 69% 30.07 in 10.0 mi NW 5.8 mph - N/A   Clear
8:56 PM 77.4 °F - 66.7 °F 70% 30.07 in 10.0 mi NW 8.1 mph - N/A   Clear
9:46 PM 75.2 °F - 66.2 °F 73% 30.09 in 10.0 mi NW 5.8 mph - N/A   Clear
9:56 PM 74.8 °F - 65.1 °F 72% 30.09 in 10.0 mi NNW 10.4 mph - N/A   Clear
10:56 PM 72.3 °F - 63.1 °F 73% 30.11 in 10.0 mi NNW 8.1 mph - N/A   Clear
11:38 PM 69.8 °F - 60.8 °F 73% 30.13 in 10.0 mi NW 5.8 mph - N/A   Clear
11:56 PM 69.4 °F - 60.8 °F 74% 30.13 in 10.0 mi NW 6.9 mph - N/A   Clear